EUTELSAT 7B

Last updated on Thu Sep 10 2026 00:02:57 GMT+0000 (Coordinated Universal Time)

1 39163U 13022A 26252.58834832 .00000095 00000+0 00000+0 0 9990 2 39163 0.0718 334.1878 0002165 42.6443 197.7107 1.00454472 48798
UTC large
Height (km)
Speed (km/s)
/
Latitude / Longitude
Inclination (degrees)
Orbital Period (minutes)
Azimuth
Elevation
Range (km)
Doppler Factor

Next 0 passes for location: London (51.5072 / 0.1276)

No passes found over London.
EUTELSAT 7B